Flag for France Weather past 2 weeks in Amiens, France

Now
52 °F

Low clouds.


Feels Like: 48 °F
Forecast: 48 / 53 °F
Wind: 10 mph from West

Location: Beauvais Airport

Current Time: Mar 28, 2015 at 11:20:42 AM

Latest Report: Mar 28, 2015 at 11:00 AM


Visibility: N/A

Pressure: 30.07 "Hg

Humidity: 94%

Dew point: 50 °F

Location of AmiensLocation

Historic Weather in Amiens — Graph

°F

Amiens temperature yesterday

Maximum temperature yesterday: 54 °F (at 4:00 PM)
Minimum temperature yesterday: 34 °F (at 5:00 AM)
Average temperature yesterday: 44 °F

Past Weeks' High & Low Weather Summary

 TemperatureHumidityPressure
High63 °F (Mar 17, 3:30 PM)100% (Mar 16, 5:30 AM)30.42 "Hg (Mar 16, 5:30 AM)
Low25 °F (Mar 23, 4:30 AM)36% (Mar 17, 5:00 PM)29.71 "Hg (Mar 26, 12:00 PM)
Average43 °F81%30.12 "Hg
* Reported Mar 13 10:00 AM — Mar 28 10:00 AM, Amiens, Weather by CustomWeather, © 2015

Note: Actual official high and low records may vary slightly from our data, if they occured in-between our weather recording intervals... More about our weather records

Advertising

Amiens weather history for previous 24 hours

 ConditionsComfort  
Time TempWeatherWind HumidityBarometerVisibility
10:00 AM
Sat, Mar 28
50 °FLow clouds.12 mph94%30.09 "HgN/A
9:30 AM50 °FLow clouds.9 mph94%30.09 "HgN/A
9:00 AM48 °FLow clouds.9 mph94%30.09 "HgN/A
8:30 AM46 °FLow clouds.8 mph100%30.09 "Hg4 mi
8:00 AM46 °FLow clouds.7 mph100%30.09 "Hg6 mi
7:30 AM46 °FLow clouds.7 mph93%30.09 "HgN/A
7:00 AM46 °FDrizzle. Fog.7 mph93%30.12 "Hg3 mi
6:30 AM45 °FDrizzle. Fog.5 mph100%30.12 "Hg2 mi
6:00 AM45 °FFog.5 mph100%30.12 "Hg2 mi
5:30 AM45 °FFog.6 mph100%30.12 "Hg2 mi
5:00 AM45 °FFog.6 mph93%30.12 "Hg2 mi
4:30 AM45 °FDrizzle. Fog.6 mph93%30.12 "Hg2 mi
4:00 AM45 °FLight rain. Low clouds.5 mph93%30.15 "Hg4 mi
3:30 AM45 °FMostly cloudy.7 mph93%30.15 "HgN/A
3:00 AM45 °FPassing clouds.6 mph87%30.15 "HgN/A
2:30 AM45 °FMostly cloudy.7 mph87%30.18 "HgN/A
2:00 AM45 °FPartly cloudy.5 mph87%30.18 "HgN/A
1:30 AM43 °FMostly cloudy.5 mph87%30.18 "HgN/A
1:00 AM41 °FClear.3 mph87%30.21 "HgN/A
12:30 AM43 °FClear.5 mph81%30.21 "HgN/A
12:00 AM43 °FClear.6 mph81%30.21 "HgN/A
11:30 PM
Fri, Mar 27
41 °FClear.6 mph87%30.21 "HgN/A
11:00 PM39 °FOvercast.3 mph87%30.21 "HgN/A
10:30 PM41 °FMostly cloudy.2 mph81%30.21 "HgN/A
10:00 PM41 °FPassing clouds.2 mph76%30.21 "HgN/A
9:30 PM41 °FClear.2 mph81%30.21 "HgN/A
9:00 PM41 °FClear.3 mph81%30.21 "HgN/A
8:30 PM43 °FClear.3 mph76%30.21 "HgN/A
8:00 PM43 °FClear.3 mph76%30.21 "HgN/A
7:30 PM45 °FPassing clouds.2 mph71%30.21 "HgN/A
7:00 PM48 °FPartly sunny.2 mph62%30.21 "HgN/A
6:30 PM50 °FClear.3 mph58%30.21 "HgN/A
6:00 PM52 °FClear.No wind62%30.21 "HgN/A
5:30 PM52 °FPartly sunny.1 mph54%30.21 "HgN/A
5:00 PM52 °FPartly sunny.6 mph54%30.18 "HgN/A
4:30 PM54 °FPassing clouds.9 mph51%30.18 "HgN/A
4:00 PM54 °FPartly sunny.10 mph54%30.18 "HgN/A
3:30 PM52 °FPartly sunny.10 mph58%30.18 "HgN/A
3:00 PM52 °FPartly sunny.8 mph58%30.18 "HgN/A
2:30 PM52 °FPartly sunny.12 mph58%30.18 "HgN/A
2:00 PM52 °FBroken clouds.12 mph54%30.18 "HgN/A
1:30 PM52 °FPartly sunny.13 mph54%30.18 "HgN/A
1:00 PM52 °FPartly sunny.12 mph62%30.18 "HgN/A
12:30 PM50 °FPartly sunny.13 mph58%30.18 "HgN/A
12:00 PM50 °FMostly cloudy.12 mph58%30.18 "HgN/A
11:30 AM48 °FBroken clouds.12 mph66%30.18 "HgN/A
11:00 AM48 °FPartly sunny.10 mph66%30.18 "HgN/A
Weather by CustomWeather, © 2015

See weather overviewHow to use our weather pages